Location: Mittersill
(44.1801°N, 71.7142°W)
Time: 03:14:55
(UTC+00:00)

SJ-6B - Pass Details

Date: 10 September 2024
Orbit: 483 x 539 km, 97.4° (Epoch: 04 October)

Event Time Altitude Azimuth Distance (km) Brightness Sun altitude
Rises 23:33:48 0° 152° (SSE) 2,581 5.9 -5.8°
Reaches altitude 10° 23:35:56 10° 145° (SE) 1,693 4.9 -6.2°
Maximum altitude 23:39:24 44° 73° (ENE) 695 3.0 -6.8°
Drops below altitude 10° 23:42:51 10° 1° (N) 1,684 5.5 -7.4°
Sets 23:44:59 0° 354° (N) 2,565 6.5 -7.8°
